{"data":{"norad_id":40129,"epoch":"2026-05-24T10:02:11.268672Z","epoch_age_seconds":115416,"freshness":"FRESH","line1":"1 40129U 14050B   26144.41818598 -.00000092  00000+0  00000+0 0  9997","line2":"2 40129  48.9189 273.4954 1672128 179.1933 181.1360  1.85520556 80040","mean_motion":1.85520556,"eccentricity":0.1672128,"inclination_deg":48.9189,"raan_deg":273.4954,"arg_perigee_deg":179.1933,"mean_anomaly_deg":181.136,"bstar":0,"rev_number":8004,"period_min":776.19431024129,"perigee_km":16921.072758663,"apogee_km":26277.427182778,"semimajor_km":27977.386970721,"source":"CELESTRAK","updated_at":"2026-05-25T13:38:24.052814Z"}}